Time,TemperatureF,DewpointF,PressureIn,WindDirection,WindDirectionDegrees,WindSpeedMPH,WindSpeedGustMPH,Humidity,HourlyPrecipIn,Conditions,Clouds,dailyrainin,SoftwareType,DateUTC
2013-04-02 00:04:00,32.4,17.6,29.77,West,270,0.7,2.9,54,0.00,,,0.00,WUHU216HW,2013-04-02 04:04:00,
2013-04-02 00:09:00,32.0,17.2,29.77,North,0,1.8,2.9,54,0.00,,,0.00,WUHU216HW,2013-04-02 04:09:00,
2013-04-02 00:14:00,32.0,17.2,29.77,NNE,23,0.4,1.8,54,0.00,,,0.00,WUHU216HW,2013-04-02 04:14:00,
2013-04-02 00:19:00,32.0,17.2,29.78,WSW,248,0.4,2.7,54,0.00,,,0.00,WUHU216HW,2013-04-02 04:19:00,
2013-04-02 00:24:00,31.9,17.5,29.78,SSW,203,1.6,2.7,55,0.00,,,0.00,WUHU216HW,2013-04-02 04:24:00,
2013-04-02 00:29:00,31.9,17.5,29.78,NNE,23,0.4,2.5,55,0.00,,,0.00,WUHU216HW,2013-04-02 04:29:00,
2013-04-02 00:34:00,31.3,17.4,29.78,NE,45,0.0,1.8,56,0.00,,,0.00,WUHU216HW,2013-04-02 04:34:00,
2013-04-02 00:39:00,31.1,17.2,29.78,NNE,23,0.2,1.8,56,0.00,,,0.00,WUHU216HW,2013-04-02 04:39:00,
2013-04-02 00:44:00,31.0,17.0,29.78,West,270,0.0,1.1,56,0.00,,,0.00,WUHU216HW,2013-04-02 04:44:00,
2013-04-02 00:49:00,30.6,17.1,29.78,West,270,0.2,1.1,57,0.00,,,0.00,WUHU216HW,2013-04-02 04:49:00,
2013-04-02 00:54:00,30.6,17.1,29.78,SW,225,1.6,2.5,57,0.00,,,0.00,WUHU216HW,2013-04-02 04:54:00,
2013-04-02 00:59:00,30.6,17.6,29.78,NNW,338,1.3,2.5,58,0.00,,,0.00,WUHU216HW,2013-04-02 04:59:00,
2013-04-02 01:04:00,30.8,17.7,29.79,WSW,248,3.6,3.6,58,0.00,,,0.00,WUHU216HW,2013-04-02 05:04:00,
2013-04-02 01:09:00,31.0,17.5,29.79,WSW,248,4.3,4.3,57,0.00,,,0.00,WUHU216HW,2013-04-02 05:09:00,
2013-04-02 01:14:00,31.3,16.9,29.79,WSW,248,3.1,5.4,55,0.00,,,0.00,WUHU216HW,2013-04-02 05:14:00,
2013-04-02 01:19:00,31.3,17.4,29.79,SSW,203,2.0,5.4,56,0.00,,,0.00,WUHU216HW,2013-04-02 05:19:00,
2013-04-02 01:24:00,31.1,17.2,29.79,WNW,293,0.2,2.9,56,0.00,,,0.00,WUHU216HW,2013-04-02 05:24:00,
2013-04-02 01:29:00,31.0,17.0,29.79,WSW,248,2.2,2.5,56,0.00,,,0.00,WUHU216HW,2013-04-02 05:29:00,
2013-04-02 01:34:00,30.8,16.8,29.79,SW,225,0.4,2.2,56,0.00,,,0.00,WUHU216HW,2013-04-02 05:34:00,
2013-04-02 01:40:00,30.6,17.1,29.79,South,180,0.7,2.0,57,0.00,,,0.00,WUHU216HW,2013-04-02 05:40:00,
2013-04-02 01:45:00,30.6,17.1,29.79,WSW,248,1.6,2.0,57,0.00,,,0.00,WUHU216HW,2013-04-02 05:45:00,
2013-04-02 01:50:00,30.6,17.1,29.79,NW,315,0.4,2.0,57,0.00,,,0.00,WUHU216HW,2013-04-02 05:50:00,
2013-04-02 01:55:00,30.4,16.9,29.79,West,270,0.4,2.0,57,0.00,,,0.00,WUHU216HW,2013-04-02 05:55:00,
2013-04-02 02:00:00,30.4,17.4,29.79,WSW,248,0.7,2.0,58,0.00,,,0.00,WUHU216HW,2013-04-02 06:00:00,
2013-04-02 02:05:00,30.4,16.9,29.79,WSW,248,1.3,2.0,57,0.00,,,0.00,WUHU216HW,2013-04-02 06:05:00,
2013-04-02 02:10:00,30.4,17.4,29.79,West,270,0.4,2.5,58,0.00,,,0.00,WUHU216HW,2013-04-02 06:10:00,
2013-04-02 02:15:00,30.2,17.2,29.79,SSW,203,0.0,2.5,58,0.00,,,0.00,WUHU216HW,2013-04-02 06:15:00,
2013-04-02 02:20:00,30.1,17.0,29.79,NNW,338,0.4,1.6,58,0.00,,,0.00,WUHU216HW,2013-04-02 06:20:00,
2013-04-02 02:25:00,29.9,16.8,29.79,WSW,248,1.1,1.1,58,0.00,,,0.00,WUHU216HW,2013-04-02 06:25:00,
2013-04-02 02:30:00,29.5,16.9,29.78,WSW,248,0.0,1.1,59,0.00,,,0.00,WUHU216HW,2013-04-02 06:30:00,
2013-04-02 02:35:00,29.3,16.7,29.79,NW,315,0.0,0.9,59,0.00,,,0.00,WUHU216HW,2013-04-02 06:35:00,
2013-04-02 02:40:00,29.2,16.7,29.78,South,180,0.4,1.1,59,0.00,,,0.00,WUHU216HW,2013-04-02 06:40:00,
2013-04-02 02:45:00,29.2,17.0,29.78,WSW,248,3.8,3.8,60,0.00,,,0.00,WUHU216HW,2013-04-02 06:45:00,
2013-04-02 02:50:00,29.2,17.0,29.79,WNW,293,1.1,3.8,60,0.00,,,0.00,WUHU216HW,2013-04-02 06:50:00,
2013-04-02 02:55:00,29.3,17.6,29.79,WSW,248,1.6,1.8,61,0.00,,,0.00,WUHU216HW,2013-04-02 06:55:00,
2013-04-02 03:00:00,29.2,17.4,29.79,WSW,248,2.9,2.9,61,0.00,,,0.00,WUHU216HW,2013-04-02 07:00:00,
2013-04-02 03:05:00,29.3,17.6,29.79,West,270,0.4,2.9,61,0.00,,,0.00,WUHU216HW,2013-04-02 07:05:00,
2013-04-02 03:10:00,29.3,17.6,29.79,West,270,0.2,2.2,61,0.00,,,0.00,WUHU216HW,2013-04-02 07:10:00,
2013-04-02 03:15:00,29.2,17.4,29.79,SSE,158,0.9,2.2,61,0.00,,,0.00,WUHU216HW,2013-04-02 07:15:00,
2013-04-02 03:20:00,29.2,17.4,29.78,WSW,248,1.6,1.8,61,0.00,,,0.00,WUHU216HW,2013-04-02 07:20:00,
2013-04-02 03:25:00,29.0,17.2,29.78,West,270,1.3,1.8,61,0.00,,,0.00,WUHU216HW,2013-04-02 07:25:00,
2013-04-02 03:30:00,28.8,17.5,29.78,SSW,203,1.1,1.8,62,0.00,,,0.00,WUHU216HW,2013-04-02 07:30:00,
2013-04-02 03:35:00,28.8,17.5,29.78,WSW,248,0.4,1.8,62,0.00,,,0.00,WUHU216HW,2013-04-02 07:35:00,
2013-04-02 03:40:00,28.8,17.5,29.78,WSW,248,0.9,1.8,62,0.00,,,0.00,WUHU216HW,2013-04-02 07:40:00,
2013-04-02 03:45:00,28.6,17.3,29.78,WNW,293,0.0,1.1,62,0.00,,,0.00,WUHU216HW,2013-04-02 07:45:00,
2013-04-02 03:50:00,28.4,17.1,29.78,WSW,248,1.1,1.1,62,0.00,,,0.00,WUHU216HW,2013-04-02 07:50:00,
2013-04-02 03:55:00,28.4,17.1,29.78,WSW,248,0.0,1.1,62,0.00,,,0.00,WUHU216HW,2013-04-02 07:55:00,
2013-04-02 04:00:00,28.3,16.9,29.78,NW,315,0.2,1.1,62,0.00,,,0.00,WUHU216HW,2013-04-02 08:00:00,
2013-04-02 04:05:00,28.1,16.7,29.78,NW,315,0.4,1.1,62,0.00,,,0.00,WUHU216HW,2013-04-02 08:05:00,
2013-04-02 04:10:00,27.9,16.6,29.79,NW,315,0.2,0.4,62,0.00,,,0.00,WUHU216HW,2013-04-02 08:10:00,
2013-04-02 04:15:00,27.7,16.4,29.79,NW,315,0.0,0.2,62,0.00,,,0.00,WUHU216HW,2013-04-02 08:15:00,
2013-04-02 04:20:00,27.7,16.4,29.78,NW,315,0.0,0.0,62,0.00,,,0.00,WUHU216HW,2013-04-02 08:20:00,
2013-04-02 04:25:00,27.5,16.2,29.79,NW,315,0.0,0.4,62,0.00,,,0.00,WUHU216HW,2013-04-02 08:25:00,
2013-04-02 04:30:00,27.2,15.8,29.79,NW,315,0.0,0.4,62,0.00,,,0.00,WUHU216HW,2013-04-02 08:30:00,
2013-04-02 04:35:00,27.0,16.0,29.79,NW,315,0.0,0.0,63,0.00,,,0.00,WUHU216HW,2013-04-02 08:35:00,
2013-04-02 04:40:00,26.6,15.7,29.79,NW,315,0.0,0.0,63,0.00,,,0.00,WUHU216HW,2013-04-02 08:40:00,
2013-04-02 04:45:00,26.5,15.8,29.79,NW,315,0.0,0.2,64,0.00,,,0.00,WUHU216HW,2013-04-02 08:45:00,
2013-04-02 04:50:00,26.5,15.8,29.79,NW,315,0.0,0.4,64,0.00,,,0.00,WUHU216HW,2013-04-02 08:50:00,
2013-04-02 04:55:00,26.5,15.8,29.79,NW,315,0.0,0.4,64,0.00,,,0.00,WUHU216HW,2013-04-02 08:55:00,
2013-04-02 05:00:00,26.3,16.0,29.79,NW,315,0.0,0.7,65,0.00,,,0.00,WUHU216HW,2013-04-02 09:00:00,
2013-04-02 05:05:00,26.5,16.2,29.80,WNW,293,0.0,1.1,65,0.00,,,0.00,WUHU216HW,2013-04-02 09:05:00,
2013-04-02 05:10:00,26.5,16.2,29.80,SW,225,1.6,1.6,65,0.00,,,0.00,WUHU216HW,2013-04-02 09:10:00,
2013-04-02 05:15:00,26.6,16.7,29.80,SW,225,0.4,1.6,66,0.00,,,0.00,WUHU216HW,2013-04-02 09:15:00,
2013-04-02 05:20:00,26.6,16.7,29.80,South,180,2.5,2.5,66,0.00,,,0.00,WUHU216HW,2013-04-02 09:20:00,
2013-04-02 05:26:00,27.0,17.1,29.80,WSW,248,0.0,2.5,66,0.00,,,0.00,WUHU216HW,2013-04-02 09:26:00,
2013-04-02 05:31:00,27.0,17.1,29.80,SW,225,1.8,3.4,66,0.00,,,0.00,WUHU216HW,2013-04-02 09:31:00,
2013-04-02 05:36:00,27.0,17.1,29.80,WSW,248,2.2,3.4,66,0.00,,,0.00,WUHU216HW,2013-04-02 09:36:00,
2013-04-02 05:42:00,27.4,17.5,29.80,SSE,158,3.8,3.8,66,0.00,,,0.00,WUHU216HW,2013-04-02 09:42:00,
2013-04-02 05:47:00,27.7,17.8,29.80,SW,225,0.9,3.8,66,0.00,,,0.00,WUHU216HW,2013-04-02 09:47:00,
2013-04-02 05:52:00,27.7,17.8,29.80,WNW,293,0.9,2.2,66,0.00,,,0.00,WUHU216HW,2013-04-02 09:52:00,
2013-04-02 05:57:00,27.9,18.0,29.80,West,270,1.1,2.5,66,0.00,,,0.00,WUHU216HW,2013-04-02 09:57:00,
2013-04-02 06:02:00,28.1,17.8,29.80,WSW,248,1.6,2.5,65,0.00,,,0.00,WUHU216HW,2013-04-02 10:02:00,
2013-04-02 06:07:00,27.9,17.6,29.81,WSW,248,1.8,2.7,65,0.00,,,0.00,WUHU216HW,2013-04-02 10:07:00,
2013-04-02 06:12:00,27.7,17.5,29.81,West,270,1.8,2.7,65,0.00,,,0.00,WUHU216HW,2013-04-02 10:12:00,
2013-04-02 06:17:00,27.7,17.8,29.81,NNE,23,1.1,2.0,66,0.00,,,0.00,WUHU216HW,2013-04-02 10:17:00,
2013-04-02 06:22:00,27.7,17.5,29.81,West,270,0.4,2.0,65,0.00,,,0.00,WUHU216HW,2013-04-02 10:22:00,
2013-04-02 06:27:00,27.5,17.6,29.81,WSW,248,0.4,3.6,66,0.00,,,0.00,WUHU216HW,2013-04-02 10:27:00,
2013-04-02 06:32:00,27.7,17.8,29.81,SW,225,2.5,3.6,66,0.00,,,0.00,WUHU216HW,2013-04-02 10:32:00,
2013-04-02 06:37:00,27.7,17.5,29.82,South,180,1.3,2.5,65,0.00,,,0.00,WUHU216HW,2013-04-02 10:37:00,
2013-04-02 06:42:00,27.7,17.5,29.82,WSW,248,0.7,2.2,65,0.00,,,0.00,WUHU216HW,2013-04-02 10:42:00,
2013-04-02 06:47:00,27.7,17.5,29.82,West,270,1.1,2.0,65,0.00,,,0.00,WUHU216HW,2013-04-02 10:47:00,
2013-04-02 06:52:00,27.4,17.1,29.82,WSW,248,0.2,2.0,65,0.00,,,0.00,WUHU216HW,2013-04-02 10:52:00,
2013-04-02 06:57:00,27.4,17.1,29.83,SSW,203,0.4,1.8,65,0.00,,,0.00,WUHU216HW,2013-04-02 10:57:00,
2013-04-02 07:02:00,27.4,17.5,29.82,WSW,248,1.8,2.5,66,0.00,,,0.00,WUHU216HW,2013-04-02 11:02:00,
2013-04-02 07:07:00,27.7,17.8,29.83,WSW,248,0.0,2.5,66,0.00,,,0.00,WUHU216HW,2013-04-02 11:07:00,
2013-04-02 07:12:00,27.7,17.8,29.83,SW,225,1.1,2.0,66,0.00,,,0.00,WUHU216HW,2013-04-02 11:12:00,
2013-04-02 07:17:00,27.9,18.0,29.83,WNW,293,1.1,2.0,66,0.00,,,0.00,WUHU216HW,2013-04-02 11:17:00,
2013-04-02 07:22:00,28.3,18.4,29.83,West,270,0.7,2.7,66,0.00,,,0.00,WUHU216HW,2013-04-02 11:22:00,
2013-04-02 07:27:00,28.4,18.5,29.84,WNW,293,0.9,2.7,66,0.00,,,0.00,WUHU216HW,2013-04-02 11:27:00,
2013-04-02 07:32:00,29.0,19.0,29.84,South,180,1.8,2.2,66,0.00,,,0.00,WUHU216HW,2013-04-02 11:32:00,
2013-04-02 07:37:00,29.9,19.8,29.84,West,270,0.2,2.7,66,0.00,,,0.00,WUHU216HW,2013-04-02 11:37:00,
2013-04-02 07:42:00,30.4,20.3,29.84,WSW,248,2.7,2.7,66,0.00,,,0.00,WUHU216HW,2013-04-02 11:42:00,
2013-04-02 07:47:00,30.8,20.0,29.84,West,270,4.0,4.0,64,0.00,,,0.00,WUHU216HW,2013-04-02 11:47:00,
2013-04-02 07:52:00,31.0,20.2,29.84,WSW,248,1.8,4.0,64,0.00,,,0.00,WUHU216HW,2013-04-02 11:52:00,
2013-04-02 07:57:00,31.1,20.0,29.85,WSW,248,5.1,5.1,63,0.00,,,0.00,WUHU216HW,2013-04-02 11:57:00,
2013-04-02 08:02:00,31.3,20.2,29.85,ESE,113,3.8,5.1,63,0.00,,,0.00,WUHU216HW,2013-04-02 12:02:00,
2013-04-02 08:07:00,31.7,20.5,29.85,NNE,23,1.6,3.8,63,0.00,,,0.00,WUHU216HW,2013-04-02 12:07:00,
2013-04-02 08:12:00,32.0,20.5,29.85,NNW,338,0.9,2.7,62,0.00,,,0.00,WUHU216HW,2013-04-02 12:12:00,
2013-04-02 08:17:00,32.4,20.9,29.85,WSW,248,2.9,2.9,62,0.00,,,0.00,WUHU216HW,2013-04-02 12:17:00,
2013-04-02 08:22:00,32.9,21.0,29.85,West,270,0.7,2.9,61,0.00,,,0.00,WUHU216HW,2013-04-02 12:22:00,
2013-04-02 08:27:00,33.3,21.0,29.86,West,270,2.2,4.3,60,0.00,,,0.00,WUHU216HW,2013-04-02 12:27:00,
2013-04-02 08:32:00,33.3,20.5,29.85,WNW,293,1.3,4.3,59,0.00,,,0.00,WUHU216HW,2013-04-02 12:32:00,
2013-04-02 08:37:00,34.0,21.6,29.86,West,270,1.8,4.0,60,0.00,,,0.00,WUHU216HW,2013-04-02 12:37:00,
2013-04-02 08:42:00,34.4,21.1,29.86,WSW,248,2.5,4.0,58,0.00,,,0.00,WUHU216HW,2013-04-02 12:42:00,
2013-04-02 08:47:00,34.9,20.8,29.85,WSW,248,1.3,4.0,56,0.00,,,0.00,WUHU216HW,2013-04-02 12:47:00,
2013-04-02 08:52:00,34.6,20.4,29.86,NE,45,1.1,4.0,56,0.00,,,0.00,WUHU216HW,2013-04-02 12:52:00,
2013-04-02 08:57:00,35.1,21.0,29.86,SSE,158,2.2,3.1,56,0.00,,,0.00,WUHU216HW,2013-04-02 12:57:00,
2013-04-02 09:02:00,35.1,18.4,29.86,SW,225,6.3,6.3,50,0.00,,,0.00,WUHU216HW,2013-04-02 13:02:00,
2013-04-02 09:07:00,35.1,19.3,29.86,NW,315,1.1,6.3,52,0.00,,,0.00,WUHU216HW,2013-04-02 13:07:00,
2013-04-02 09:12:00,35.5,18.7,29.86,SSE,158,2.7,3.4,50,0.00,,,0.00,WUHU216HW,2013-04-02 13:12:00,
2013-04-02 09:17:00,35.6,16.8,29.86,NE,45,3.6,3.6,46,0.00,,,0.00,WUHU216HW,2013-04-02 13:17:00,
2013-04-02 09:22:00,36.0,19.3,29.86,NW,315,1.8,3.6,50,0.00,,,0.00,WUHU216HW,2013-04-02 13:22:00,
2013-04-02 09:27:00,36.5,17.7,29.86,WSW,248,6.3,7.6,46,0.00,,,0.00,WUHU216HW,2013-04-02 13:27:00,
2013-04-02 09:32:00,36.5,18.2,29.86,SSW,203,1.8,7.6,47,0.00,,,0.00,WUHU216HW,2013-04-02 13:32:00,
2013-04-02 09:37:00,36.5,18.2,29.86,NW,315,0.4,5.4,47,0.00,,,0.00,WUHU216HW,2013-04-02 13:37:00,
2013-04-02 09:42:00,36.7,17.3,29.86,West,270,0.7,5.4,45,0.00,,,0.00,WUHU216HW,2013-04-02 13:42:00,
2013-04-02 09:47:00,37.1,17.6,29.86,WSW,248,4.3,4.3,45,0.00,,,0.00,WUHU216HW,2013-04-02 13:47:00,
2013-04-02 09:52:00,37.1,16.6,29.86,SSW,203,3.1,4.3,43,0.00,,,0.00,WUHU216HW,2013-04-02 13:52:00,
2013-04-02 09:57:00,37.4,17.4,29.86,West,270,4.7,4.7,44,0.00,,,0.00,WUHU216HW,2013-04-02 13:57:00,
2013-04-02 10:02:00,37.8,17.7,29.86,WNW,293,5.4,5.4,44,0.00,,,0.00,WUHU216HW,2013-04-02 14:02:00,
2013-04-02 10:07:00,38.5,17.8,29.86,West,270,3.8,5.4,43,0.00,,,0.00,WUHU216HW,2013-04-02 14:07:00,
2013-04-02 10:12:00,38.9,18.2,29.86,SSE,158,4.3,4.3,43,0.00,,,0.00,WUHU216HW,2013-04-02 14:12:00,
2013-04-02 10:17:00,38.7,17.5,29.86,WSW,248,1.3,4.3,42,0.00,,,0.00,WUHU216HW,2013-04-02 14:17:00,
2013-04-02 10:22:00,39.2,19.0,29.86,WSW,248,4.0,4.3,44,0.00,,,0.00,WUHU216HW,2013-04-02 14:22:00,
2013-04-02 10:27:00,40.1,19.3,29.86,West,270,2.5,4.0,43,0.00,,,0.00,WUHU216HW,2013-04-02 14:27:00,
2013-04-02 10:32:00,40.3,17.3,29.86,West,270,3.4,5.1,39,0.00,,,0.00,WUHU216HW,2013-04-02 14:32:00,
2013-04-02 10:37:00,40.1,18.3,29.86,WSW,248,2.2,5.1,41,0.00,,,0.00,WUHU216HW,2013-04-02 14:37:00,
2013-04-02 10:42:00,40.3,15.3,29.86,West,270,2.0,5.6,36,0.00,,,0.00,WUHU216HW,2013-04-02 14:42:00,
2013-04-02 10:48:00,39.8,16.7,29.86,NW,315,1.8,7.8,39,0.00,,,0.00,WUHU216HW,2013-04-02 14:48:00,
2013-04-02 10:53:00,40.1,17.7,29.86,North,0,1.8,7.8,40,0.00,,,0.00,WUHU216HW,2013-04-02 14:53:00,
2013-04-02 10:58:00,40.3,17.3,29.86,WSW,248,3.6,4.3,39,0.00,,,0.00,WUHU216HW,2013-04-02 14:58:00,
2013-04-02 11:03:00,40.9,18.4,29.86,WSW,248,3.4,4.3,40,0.00,,,0.00,WUHU216HW,2013-04-02 15:03:00,
2013-04-02 11:08:00,40.7,16.9,29.85,NW,315,1.3,5.4,38,0.00,,,0.00,WUHU216HW,2013-04-02 15:08:00,
2013-04-02 11:13:00,40.9,17.1,29.86,West,270,2.2,5.4,38,0.00,,,0.00,WUHU216HW,2013-04-02 15:13:00,
2013-04-02 11:18:00,41.0,17.9,29.85,WSW,248,3.6,5.1,39,0.00,,,0.00,WUHU216HW,2013-04-02 15:18:00,
2013-04-02 11:23:00,41.4,17.6,29.85,SSW,203,6.9,8.3,38,0.00,,,0.00,WUHU216HW,2013-04-02 15:23:00,
2013-04-02 11:28:00,41.2,18.1,29.85,WSW,248,2.0,8.3,39,0.00,,,0.00,WUHU216HW,2013-04-02 15:28:00,
2013-04-02 11:33:00,41.6,17.7,29.85,WNW,293,2.9,11.9,38,0.00,,,0.00,WUHU216HW,2013-04-02 15:33:00,
2013-04-02 11:38:00,42.1,18.2,29.85,WSW,248,4.7,11.9,38,0.00,,,0.00,WUHU216HW,2013-04-02 15:38:00,
2013-04-02 11:43:00,42.1,17.6,29.85,SW,225,2.0,6.3,37,0.00,,,0.00,WUHU216HW,2013-04-02 15:43:00,
2013-04-02 11:48:00,42.8,19.5,29.85,SW,225,3.6,5.4,39,0.00,,,0.00,WUHU216HW,2013-04-02 15:48:00,
2013-04-02 11:53:00,42.8,18.2,29.85,West,270,4.5,4.5,37,0.00,,,0.00,WUHU216HW,2013-04-02 15:53:00,
2013-04-02 11:58:00,42.8,18.8,29.85,SW,225,1.3,5.4,38,0.00,,,0.00,WUHU216HW,2013-04-02 15:58:00,
2013-04-02 12:03:00,42.8,17.5,29.84,West,270,2.5,5.4,36,0.00,,,0.00,WUHU216HW,2013-04-02 16:03:00,
2013-04-02 12:08:00,42.8,15.5,29.85,WSW,248,8.7,8.7,33,0.00,,,0.00,WUHU216HW,2013-04-02 16:08:00,
2013-04-02 12:13:00,41.4,14.3,29.85,West,270,2.0,8.7,33,0.00,,,0.00,WUHU216HW,2013-04-02 16:13:00,
2013-04-02 12:18:00,41.4,14.9,29.84,WSW,248,4.0,8.1,34,0.00,,,0.00,WUHU216HW,2013-04-02 16:18:00,
2013-04-02 12:23:00,42.1,16.9,29.84,West,270,4.0,5.4,36,0.00,,,0.00,WUHU216HW,2013-04-02 16:23:00,
2013-04-02 12:28:00,41.9,16.8,29.84,WSW,248,2.7,4.9,36,0.00,,,0.00,WUHU216HW,2013-04-02 16:28:00,
2013-04-02 12:33:00,42.1,16.2,29.84,WNW,293,3.8,6.0,35,0.00,,,0.00,WUHU216HW,2013-04-02 16:33:00,
2013-04-02 12:38:00,42.7,16.7,29.84,West,270,5.4,6.0,35,0.00,,,0.00,WUHU216HW,2013-04-02 16:38:00,
2013-04-02 12:43:00,43.6,18.8,29.84,SSW,203,6.0,6.0,37,0.00,,,0.00,WUHU216HW,2013-04-02 16:43:00,
2013-04-02 12:48:00,44.3,19.4,29.84,South,180,4.0,6.0,37,0.00,,,0.00,WUHU216HW,2013-04-02 16:48:00,
2013-04-02 12:53:00,44.6,19.8,29.84,WNW,293,2.7,5.6,37,0.00,,,0.00,WUHU216HW,2013-04-02 16:53:00,
2013-04-02 12:58:00,44.3,16.8,29.84,SW,225,2.2,7.6,33,0.00,,,0.00,WUHU216HW,2013-04-02 16:58:00,
2013-04-02 13:03:00,44.6,19.1,29.84,WSW,248,4.5,7.6,36,0.00,,,0.00,WUHU216HW,2013-04-02 17:03:00,
2013-04-02 13:08:00,44.6,17.8,29.84,WSW,248,2.0,5.6,34,0.00,,,0.00,WUHU216HW,2013-04-02 17:08:00,
2013-04-02 13:13:00,43.2,17.8,29.84,SW,225,4.7,5.6,36,0.00,,,0.00,WUHU216HW,2013-04-02 17:13:00,
2013-04-02 13:18:00,42.8,15.5,29.83,WNW,293,0.9,4.7,33,0.00,,,0.00,WUHU216HW,2013-04-02 17:18:00,
2013-04-02 13:23:00,42.7,17.4,29.83,WSW,248,2.0,3.1,36,0.00,,,0.00,WUHU216HW,2013-04-02 17:23:00,
2013-04-02 13:28:00,43.0,15.0,29.83,WSW,248,1.8,5.8,32,0.00,,,0.00,WUHU216HW,2013-04-02 17:28:00,
2013-04-02 13:33:00,42.3,14.4,29.82,WSW,248,3.4,5.8,32,0.00,,,0.00,WUHU216HW,2013-04-02 17:33:00,
2013-04-02 13:38:00,42.8,15.5,29.82,SW,225,2.5,6.9,33,0.00,,,0.00,WUHU216HW,2013-04-02 17:38:00,
2013-04-02 13:43:00,43.9,18.5,29.83,NW,315,1.6,6.9,36,0.00,,,0.00,WUHU216HW,2013-04-02 17:43:00,
2013-04-02 13:48:00,43.6,17.5,29.82,West,270,6.0,6.0,35,0.00,,,0.00,WUHU216HW,2013-04-02 17:48:00,
2013-04-02 13:53:00,43.9,17.8,29.83,West,270,1.1,8.1,35,0.00,,,0.00,WUHU216HW,2013-04-02 17:53:00,
2013-04-02 13:58:00,43.6,16.1,29.82,West,270,2.0,8.1,33,0.00,,,0.00,WUHU216HW,2013-04-02 17:58:00,
2013-04-02 14:03:00,44.3,18.1,29.83,WSW,248,3.8,5.1,35,0.00,,,0.00,WUHU216HW,2013-04-02 18:03:00,
2013-04-02 14:08:00,44.8,18.6,29.82,SW,225,3.1,4.7,35,0.00,,,0.00,WUHU216HW,2013-04-02 18:08:00,
2013-04-02 14:13:00,44.3,17.5,29.83,West,270,2.7,6.7,34,0.00,,,0.00,WUHU216HW,2013-04-02 18:13:00,
2013-04-02 14:18:00,44.1,16.7,29.83,WNW,293,6.3,6.7,33,0.00,,,0.00,WUHU216HW,2013-04-02 18:18:00,
2013-04-02 14:23:00,43.6,16.1,29.82,NNW,338,2.2,6.3,33,0.00,,,0.00,WUHU216HW,2013-04-02 18:23:00,
2013-04-02 14:29:00,43.4,16.0,29.82,SSW,203,4.0,5.4,33,0.00,,,0.00,WUHU216HW,2013-04-02 18:29:00,
2013-04-02 14:34:00,43.6,16.1,29.82,West,270,7.6,7.6,33,0.00,,,0.00,WUHU216HW,2013-04-02 18:34:00,
2013-04-02 14:39:00,43.6,16.1,29.82,WSW,248,3.4,7.6,33,0.00,,,0.00,WUHU216HW,2013-04-02 18:39:00,
2013-04-02 14:44:00,43.2,17.2,29.82,WSW,248,5.6,6.3,35,0.00,,,0.00,WUHU216HW,2013-04-02 18:44:00,
2013-04-02 14:49:00,42.7,15.4,29.82,SW,225,0.4,5.6,33,0.00,,,0.00,WUHU216HW,2013-04-02 18:49:00,
2013-04-02 14:54:00,42.5,15.2,29.82,West,270,2.7,5.1,33,0.00,,,0.00,WUHU216HW,2013-04-02 18:54:00,
2013-04-02 14:59:00,41.9,16.0,29.82,SSW,203,1.8,3.8,35,0.00,,,0.00,WUHU216HW,2013-04-02 18:59:00,
2013-04-02 15:04:00,42.1,16.2,29.82,WSW,248,3.4,3.4,35,0.00,,,0.00,WUHU216HW,2013-04-02 19:04:00,
2013-04-02 15:09:00,43.4,18.6,29.81,SW,225,3.4,3.4,37,0.00,,,0.00,WUHU216HW,2013-04-02 19:09:00,
2013-04-02 15:14:00,43.7,16.3,29.82,NW,315,2.2,4.0,33,0.00,,,0.00,WUHU216HW,2013-04-02 19:14:00,
2013-04-02 15:19:00,43.2,17.2,29.81,SSE,158,4.3,5.4,35,0.00,,,0.00,WUHU216HW,2013-04-02 19:19:00,
2013-04-02 15:24:00,42.3,15.0,29.82,WSW,248,5.4,5.4,33,0.00,,,0.00,WUHU216HW,2013-04-02 19:24:00,
2013-04-02 15:29:00,41.6,15.8,29.82,WSW,248,1.6,5.4,35,0.00,,,0.00,WUHU216HW,2013-04-02 19:29:00,
2013-04-02 15:34:00,41.8,15.9,29.82,SSE,158,3.4,3.6,35,0.00,,,0.00,WUHU216HW,2013-04-02 19:34:00,
2013-04-02 15:39:00,42.5,17.2,29.81,SW,225,3.8,5.1,36,0.00,,,0.00,WUHU216HW,2013-04-02 19:39:00,
2013-04-02 15:44:00,42.5,16.6,29.82,SE,135,2.7,5.1,35,0.00,,,0.00,WUHU216HW,2013-04-02 19:44:00,
2013-04-02 15:49:00,41.9,15.4,29.82,NE,45,7.6,7.6,34,0.00,,,0.00,WUHU216HW,2013-04-02 19:49:00,
2013-04-02 15:54:00,40.7,14.9,29.82,WSW,248,2.0,7.6,35,0.00,,,0.00,WUHU216HW,2013-04-02 19:54:00,
2013-04-02 15:59:00,40.5,14.9,29.82,SSW,203,2.9,4.3,35,0.00,,,0.00,WUHU216HW,2013-04-02 19:59:00,
2013-04-02 16:04:00,41.0,15.9,29.81,WSW,248,3.4,4.0,36,0.00,,,0.00,WUHU216HW,2013-04-02 20:04:00,
2013-04-02 16:10:00,40.9,15.8,29.82,West,270,3.1,6.3,36,0.00,,,0.00,WUHU216HW,2013-04-02 20:10:00,
2013-04-02 16:15:00,41.2,16.1,29.81,West,270,2.2,6.9,36,0.00,,,0.00,WUHU216HW,2013-04-02 20:15:00,
2013-04-02 16:20:00,41.2,15.5,29.82,West,270,4.7,4.7,35,0.00,,,0.00,WUHU216HW,2013-04-02 20:20:00,
2013-04-02 16:25:00,40.7,14.9,29.82,WSW,248,1.8,4.7,35,0.00,,,0.00,WUHU216HW,2013-04-02 20:25:00,
2013-04-02 16:30:00,40.0,14.3,29.82,WSW,248,2.5,4.0,35,0.00,,,0.00,WUHU216HW,2013-04-02 20:30:00,
2013-04-02 16:35:00,39.6,14.7,29.82,North,0,1.3,4.0,36,0.00,,,0.00,WUHU216HW,2013-04-02 20:35:00,
2013-04-02 16:40:00,39.4,15.1,29.82,WSW,248,1.3,5.4,37,0.00,,,0.00,WUHU216HW,2013-04-02 20:40:00,
2013-04-02 16:45:00,40.5,16.1,29.82,South,180,3.8,5.6,37,0.00,,,0.00,WUHU216HW,2013-04-02 20:45:00,
2013-04-02 16:50:00,41.4,16.9,29.82,West,270,3.4,5.6,37,0.00,,,0.00,WUHU216HW,2013-04-02 20:50:00,
2013-04-02 16:55:00,41.6,14.5,29.82,WNW,293,3.8,5.1,33,0.00,,,0.00,WUHU216HW,2013-04-02 20:55:00,
2013-04-02 17:00:00,41.2,14.1,29.82,SW,225,2.5,4.7,33,0.00,,,0.00,WUHU216HW,2013-04-02 21:00:00,
2013-04-02 17:05:00,40.9,13.2,29.83,West,270,6.3,8.5,32,0.00,,,0.00,WUHU216HW,2013-04-02 21:05:00,
2013-04-02 17:10:00,40.7,13.7,29.83,SW,225,2.5,8.5,33,0.00,,,0.00,WUHU216HW,2013-04-02 21:10:00,
2013-04-02 17:15:00,40.3,13.3,29.83,WSW,248,2.5,4.0,33,0.00,,,0.00,WUHU216HW,2013-04-02 21:15:00,
2013-04-02 17:20:00,39.8,12.9,29.83,WNW,293,2.5,4.5,33,0.00,,,0.00,WUHU216HW,2013-04-02 21:20:00,
2013-04-02 17:25:00,39.4,13.9,29.83,WSW,248,2.5,4.5,35,0.00,,,0.00,WUHU216HW,2013-04-02 21:25:00,
2013-04-02 17:30:00,39.4,14.5,29.83,NW,315,4.5,4.5,36,0.00,,,0.00,WUHU216HW,2013-04-02 21:30:00,
2013-04-02 17:35:00,39.6,14.1,29.83,SSW,203,2.0,4.5,35,0.00,,,0.00,WUHU216HW,2013-04-02 21:35:00,
2013-04-02 17:40:00,39.4,14.5,29.83,WSW,248,0.0,2.9,36,0.00,,,0.00,WUHU216HW,2013-04-02 21:40:00,
2013-04-02 17:45:00,39.1,13.5,29.84,WSW,248,2.0,3.1,35,0.00,,,0.00,WUHU216HW,2013-04-02 21:45:00,
2013-04-02 17:50:00,38.7,13.9,29.84,SW,225,3.6,3.6,36,0.00,,,0.00,WUHU216HW,2013-04-02 21:50:00,
2013-04-02 17:55:00,38.5,13.7,29.84,SSW,203,1.3,3.6,36,0.00,,,0.00,WUHU216HW,2013-04-02 21:55:00,
2013-04-02 18:00:00,38.3,13.5,29.84,WSW,248,2.5,4.7,36,0.00,,,0.00,WUHU216HW,2013-04-02 22:00:00,
2013-04-02 18:05:00,37.8,12.4,29.85,West,270,1.8,4.7,35,0.00,,,0.00,WUHU216HW,2013-04-02 22:05:00,
2013-04-02 18:10:00,37.8,13.7,29.85,NNW,338,0.4,4.7,37,0.00,,,0.00,WUHU216HW,2013-04-02 22:10:00,
2013-04-02 18:15:00,37.8,13.7,29.85,WNW,293,0.9,3.4,37,0.00,,,0.00,WUHU216HW,2013-04-02 22:15:00,
2013-04-02 18:20:00,38.2,14.1,29.86,WSW,248,3.4,3.4,37,0.00,,,0.00,WUHU216HW,2013-04-02 22:20:00,
2013-04-02 18:25:00,38.3,14.1,29.86,WSW,248,2.2,3.4,37,0.00,,,0.00,WUHU216HW,2013-04-02 22:25:00,
2013-04-02 18:30:00,38.3,14.1,29.86,WSW,248,3.4,5.4,37,0.00,,,0.00,WUHU216HW,2013-04-02 22:30:00,
2013-04-02 18:35:00,38.2,14.1,29.86,NNW,338,1.8,5.4,37,0.00,,,0.00,WUHU216HW,2013-04-02 22:35:00,
2013-04-02 18:40:00,37.8,13.1,29.86,West,270,3.1,3.4,36,0.00,,,0.00,WUHU216HW,2013-04-02 22:40:00,
2013-04-02 18:45:00,37.4,12.7,29.86,SW,225,4.3,4.9,36,0.00,,,0.00,WUHU216HW,2013-04-02 22:45:00,
2013-04-02 18:50:00,37.4,13.3,29.86,WSW,248,0.0,4.9,37,0.00,,,0.00,WUHU216HW,2013-04-02 22:50:00,
2013-04-02 18:55:00,37.1,13.1,29.87,SSE,158,2.9,3.4,37,0.00,,,0.00,WUHU216HW,2013-04-02 22:55:00,
2013-04-02 19:01:00,36.7,13.3,29.87,NNW,338,0.9,4.0,38,0.00,,,0.00,WUHU216HW,2013-04-02 23:01:00,
2013-04-02 19:06:00,36.5,13.2,29.87,West,270,2.5,4.0,38,0.00,,,0.00,WUHU216HW,2013-04-02 23:06:00,
2013-04-02 19:11:00,36.4,13.7,29.87,NW,315,1.8,2.5,39,0.00,,,0.00,WUHU216HW,2013-04-02 23:11:00,
2013-04-02 19:16:00,36.0,13.3,29.87,NNW,338,2.5,2.5,39,0.00,,,0.00,WUHU216HW,2013-04-02 23:16:00,
2013-04-02 19:21:00,35.8,13.2,29.87,West,270,1.8,2.5,39,0.00,,,0.00,WUHU216HW,2013-04-02 23:21:00,
2013-04-02 19:27:00,35.6,13.7,29.87,SW,225,0.4,2.2,40,0.00,,,0.00,WUHU216HW,2013-04-02 23:27:00,
2013-04-02 19:32:00,35.5,13.5,29.88,WSW,248,0.0,1.8,40,0.00,,,0.00,WUHU216HW,2013-04-02 23:32:00,
2013-04-02 19:37:00,35.3,13.3,29.88,WSW,248,0.4,1.8,40,0.00,,,0.00,WUHU216HW,2013-04-02 23:37:00,
2013-04-02 19:42:00,35.1,13.7,29.88,West,270,1.8,2.2,41,0.00,,,0.00,WUHU216HW,2013-04-02 23:42:00,
2013-04-02 19:47:00,34.9,13.6,29.89,West,270,0.4,2.5,41,0.00,,,0.00,WUHU216HW,2013-04-02 23:47:00,
2013-04-02 19:52:00,34.7,13.4,29.89,West,270,0.0,2.5,41,0.00,,,0.00,WUHU216HW,2013-04-02 23:52:00,
2013-04-02 19:57:00,34.6,13.2,29.89,SW,225,0.0,2.0,41,0.00,,,0.00,WUHU216HW,2013-04-02 23:57:00,
2013-04-02 20:02:00,34.2,12.9,29.88,WSW,248,1.8,3.4,41,0.00,,,0.00,WUHU216HW,2013-04-03 00:02:00,
2013-04-02 20:07:00,34.6,13.8,29.88,WSW,248,0.0,3.4,42,0.00,,,0.00,WUHU216HW,2013-04-03 00:07:00,
2013-04-02 20:12:00,34.2,13.4,29.89,WSW,248,0.4,2.5,42,0.00,,,0.00,WUHU216HW,2013-04-03 00:12:00,
2013-04-02 20:17:00,34.2,13.4,29.89,ENE,68,1.1,1.8,42,0.00,,,0.00,WUHU216HW,2013-04-03 00:17:00,
2013-04-02 20:22:00,34.0,13.2,29.89,SW,225,0.7,1.8,42,0.00,,,0.00,WUHU216HW,2013-04-03 00:22:00,
2013-04-02 20:27:00,33.8,13.6,29.89,WSW,248,1.3,3.1,43,0.00,,,0.00,WUHU216HW,2013-04-03 00:27:00,
2013-04-02 20:32:00,34.0,13.8,29.89,West,270,0.4,3.1,43,0.00,,,0.00,WUHU216HW,2013-04-03 00:32:00,
2013-04-02 20:37:00,34.0,13.8,29.89,West,270,0.0,3.1,43,0.00,,,0.00,WUHU216HW,2013-04-03 00:37:00,
2013-04-02 20:42:00,34.0,13.8,29.89,SW,225,0.4,3.1,43,0.00,,,0.00,WUHU216HW,2013-04-03 00:42:00,
2013-04-02 20:47:00,33.7,13.4,29.90,WSW,248,1.1,2.0,43,0.00,,,0.00,WUHU216HW,2013-04-03 00:47:00,
2013-04-02 20:52:00,33.5,13.2,29.90,WNW,293,0.7,2.0,43,0.00,,,0.00,WUHU216HW,2013-04-03 00:52:00,
2013-04-02 20:57:00,33.3,13.1,29.90,WSW,248,1.3,1.8,43,0.00,,,0.00,WUHU216HW,2013-04-03 00:57:00,
2013-04-02 21:02:00,33.3,13.6,29.90,West,270,0.9,1.6,44,0.00,,,0.00,WUHU216HW,2013-04-03 01:02:00,
2013-04-02 21:07:00,33.3,13.6,29.90,SW,225,1.1,1.6,44,0.00,,,0.00,WUHU216HW,2013-04-03 01:07:00,
2013-04-02 21:12:00,33.1,13.4,29.91,West,270,0.9,1.6,44,0.00,,,0.00,WUHU216HW,2013-04-03 01:12:00,
2013-04-02 21:17:00,32.9,13.2,29.91,WSW,248,1.3,1.6,44,0.00,,,0.00,WUHU216HW,2013-04-03 01:17:00,
2013-04-02 21:22:00,32.9,13.2,29.91,West,270,0.4,2.2,44,0.00,,,0.00,WUHU216HW,2013-04-03 01:22:00,
2013-04-02 21:28:00,32.8,13.6,29.91,West,270,1.1,2.2,45,0.00,,,0.00,WUHU216HW,2013-04-03 01:28:00,
2013-04-02 21:33:00,32.9,13.8,29.91,WSW,248,1.8,2.9,45,0.00,,,0.00,WUHU216HW,2013-04-03 01:33:00,
2013-04-02 21:38:00,33.1,14.0,29.91,NNW,338,2.7,2.9,45,0.00,,,0.00,WUHU216HW,2013-04-03 01:38:00,
2013-04-02 21:43:00,33.3,13.6,29.91,WSW,248,1.8,2.7,44,0.00,,,0.00,WUHU216HW,2013-04-03 01:43:00,
2013-04-02 21:48:00,33.3,13.6,29.91,WSW,248,0.9,2.0,44,0.00,,,0.00,WUHU216HW,2013-04-03 01:48:00,
2013-04-02 21:53:00,33.1,13.4,29.91,SW,225,1.3,2.2,44,0.00,,,0.00,WUHU216HW,2013-04-03 01:53:00,
2013-04-02 21:58:00,32.8,13.6,29.91,West,270,0.0,4.9,45,0.00,,,0.00,WUHU216HW,2013-04-03 01:58:00,
2013-04-02 22:03:00,32.6,13.4,29.92,NNE,23,1.6,4.9,45,0.00,,,0.00,WUHU216HW,2013-04-03 02:03:00,
2013-04-02 22:08:00,32.4,13.3,29.92,NW,315,0.0,1.8,45,0.00,,,0.00,WUHU216HW,2013-04-03 02:08:00,
2013-04-02 22:13:00,32.0,13.0,29.92,SW,225,0.0,1.8,45,0.00,,,0.00,WUHU216HW,2013-04-03 02:13:00,
2013-04-02 22:18:00,31.9,13.3,29.92,West,270,0.7,2.0,46,0.00,,,0.00,WUHU216HW,2013-04-03 02:18:00,
2013-04-02 22:23:00,32.0,13.5,29.93,WNW,293,0.4,2.0,46,0.00,,,0.00,WUHU216HW,2013-04-03 02:23:00,
2013-04-02 22:28:00,32.0,13.5,29.92,WSW,248,0.7,2.0,46,0.00,,,0.00,WUHU216HW,2013-04-03 02:28:00,
2013-04-02 22:33:00,32.2,13.2,29.92,WSW,248,1.3,4.3,45,0.00,,,0.00,WUHU216HW,2013-04-03 02:33:00,
2013-04-02 22:38:00,32.4,13.8,29.92,WSW,248,2.0,4.3,46,0.00,,,0.00,WUHU216HW,2013-04-03 02:38:00,
2013-04-02 22:43:00,32.4,13.3,29.93,WSW,248,0.4,2.2,45,0.00,,,0.00,WUHU216HW,2013-04-03 02:43:00,
2013-04-02 22:48:00,32.2,13.6,29.92,West,270,0.2,2.2,46,0.00,,,0.00,WUHU216HW,2013-04-03 02:48:00,
2013-04-02 22:53:00,32.0,13.0,29.92,West,270,3.1,3.1,45,0.00,,,0.00,WUHU216HW,2013-04-03 02:53:00,
2013-04-02 22:58:00,32.4,13.3,29.92,WNW,293,0.4,3.1,45,0.00,,,0.00,WUHU216HW,2013-04-03 02:58:00,
2013-04-02 23:03:00,32.2,13.2,29.93,WSW,248,4.0,4.0,45,0.00,,,0.00,WUHU216HW,2013-04-03 03:03:00,
2013-04-02 23:08:00,32.4,13.3,29.92,West,270,1.6,4.0,45,0.00,,,0.00,WUHU216HW,2013-04-03 03:08:00,
2013-04-02 23:13:00,32.4,13.3,29.93,ESE,113,1.8,3.1,45,0.00,,,0.00,WUHU216HW,2013-04-03 03:13:00,
2013-04-02 23:18:00,32.0,13.0,29.93,WSW,248,1.1,3.1,45,0.00,,,0.00,WUHU216HW,2013-04-03 03:18:00,
2013-04-02 23:23:00,31.7,12.6,29.93,SSW,203,1.1,1.8,45,0.00,,,0.00,WUHU216HW,2013-04-03 03:23:00,
2013-04-02 23:28:00,31.5,12.5,29.93,West,270,2.2,2.9,45,0.00,,,0.00,WUHU216HW,2013-04-03 03:28:00,
2013-04-02 23:34:00,31.9,12.8,29.93,WNW,293,2.5,2.9,45,0.00,,,0.00,WUHU216HW,2013-04-03 03:34:00,
2013-04-02 23:39:00,31.9,12.8,29.93,West,270,1.6,3.1,45,0.00,,,0.00,WUHU216HW,2013-04-03 03:39:00,
2013-04-02 23:44:00,31.7,12.6,29.93,West,270,1.6,3.1,45,0.00,,,0.00,WUHU216HW,2013-04-03 03:44:00,
2013-04-02 23:49:00,31.5,12.5,29.93,North,0,1.8,3.4,45,0.00,,,0.00,WUHU216HW,2013-04-03 03:49:00,
2013-04-02 23:54:00,31.7,12.6,29.93,WNW,293,1.6,3.4,45,0.00,,,0.00,WUHU216HW,2013-04-03 03:54:00,
2013-04-02 23:59:00,31.5,12.0,29.93,West,270,1.8,3.4,44,0.00,,,0.00,WUHU216HW,2013-04-03 03:59:00,